Shannon, Ireland

2:42 PM GMT on February 12, 2016 (GMT +0000)
Shannon

Weather History for EINN - November, 2011

Change the Weather History Date:

Wednesday, November 16, 2011

  Actual Average Record
Temperature  
Mean Temperature 52 °F -  
Max Temperature 57 °F 49 °F 60 °F (1997)
Min Temperature 46 °F 39 °F 33 °F (2002)
Degree Days  
Heating Degree Days 14    
Growing Degree Days 2 (Base 50)    
Moisture  
Dew Point 49 °F    
Average Humidity 92    
Maximum Humidity 100    
Minimum Humidity 82    
Precipitation  
Precipitation 0.12 in 0.13 in - ()
Sea Level Pressure  
Sea Level Pressure 29.83 in    
Wind  
Wind Speed 9 mph ()    
Max Wind Speed 16 mph    
Max Gust Speed -    
Visibility 4.9 miles    
Events Rain    
Averages and records for this station are not official NWS values.
T = Trace of Precipitation, MM = Missing Value Source: Averaged Metar Reports

Daily Weather History Graph

Daily Weather History Graph

Search for Another Location

Airport or City:

Trip Planner

Search our weather history database for the weather conditions in past years. The results will help you decide how hot, cold, wet, or windy it might be!

Date:

Astronomy

Nov. 16, 2011 Rise Set
Actual Time 7:59 AM GMT 4:40 PM GMT
Civil Twilight 7:20 AM GMT 5:19 PM GMT
Nautical Twilight 6:38 AM GMT 6:01 PM GMT
Astronomical Twilight 5:58 AM GMT 6:41 PM GMT
Moon 9:44 PM GMT (11/16) 12:25 PM GMT (11/16)
Length of Visible Light 9h 58m
Length of Day
8h 41m
Waning Gibbous, 72% of the Moon is Illuminated
Nov 16
Waning Gibbous
Nov 18
Last Quarter
Nov 25
New
Dec 2
First Quarter
Dec 10
Full

Hourly Weather History & Observations

Time (GMT) Temp. Windchill Dew Point Humidity Pressure Visibility Wind Dir Wind Speed Gust Speed Precip Events Conditions
12:00 AM 51 °F - 47 °F 83% 29.88 in 5 mi East 11.2 mph - -   Mist
12:00 AM 51.8 °F - 48.2 °F 88% 29.86 in 5.0 mi East 10.4 mph - N/A   Mostly Cloudy
12:30 AM 51.8 °F - 48.2 °F 88% 29.86 in 5.0 mi ESE 15.0 mph - N/A   Mostly Cloudy
1:00 AM 51.8 °F - 48.2 °F 88% 29.86 in 4.3 mi ESE 12.7 mph - N/A   Overcast
1:30 AM 51.8 °F - 48.2 °F 88% 29.86 in 3.7 mi ESE 11.5 mph - N/A   Overcast
2:00 AM 51.8 °F - 48.2 °F 88% 29.86 in 3.7 mi East 12.7 mph - N/A   Overcast
2:30 AM 51.8 °F - 48.2 °F 88% 29.83 in 3.7 mi East 11.5 mph - N/A   Overcast
3:00 AM 51.8 °F - 48.2 °F 88% 29.83 in 3.7 mi East 9.2 mph - N/A   Overcast
3:30 AM 51.8 °F - 48.2 °F 88% 29.83 in 3.7 mi ESE 11.5 mph - N/A   Overcast
4:00 AM 51.8 °F - 50.0 °F 94% 29.83 in 2.8 mi ESE 9.2 mph - N/A   Light Drizzle
4:30 AM 51.8 °F - 50.0 °F 94% 29.83 in 2.8 mi ESE 10.4 mph - N/A   Light Drizzle
5:00 AM 51.8 °F - 50.0 °F 94% 29.83 in 2.8 mi ESE 9.2 mph - N/A   Light Drizzle
5:30 AM 51.8 °F - 50.0 °F 94% 29.83 in 2.2 mi East 9.2 mph - N/A Rain Light Rain
6:00 AM 52 °F - 51 °F 94% 29.83 in 2 mi East 8.9 mph - - Rain Light Drizzle
6:00 AM 51.8 °F - 50.0 °F 94% 29.83 in 2.2 mi East 11.5 mph - N/A   Light Drizzle
6:30 AM 51.8 °F - 51.8 °F 100% 29.83 in 2.8 mi ESE 10.4 mph - N/A   Light Drizzle
7:00 AM 53.6 °F - 51.8 °F 94% 29.83 in 2.5 mi East 9.2 mph - N/A   Mostly Cloudy
7:30 AM 53.6 °F - 51.8 °F 94% 29.83 in 2.5 mi East 11.5 mph - N/A   Mostly Cloudy
8:00 AM 53.6 °F - 51.8 °F 94% 29.80 in 2.2 mi ESE 13.8 mph - N/A   Mostly Cloudy
8:30 AM 53.6 °F - 51.8 °F 94% 29.83 in 2.2 mi East 8.1 mph - N/A   Mostly Cloudy
9:00 AM 53.6 °F - 51.8 °F 94% 29.83 in 2.2 mi ESE 9.2 mph - N/A   Mostly Cloudy
9:30 AM 53.6 °F - 51.8 °F 94% 29.83 in 2.2 mi East 8.1 mph - N/A   Mostly Cloudy
10:00 AM 55.4 °F - 53.6 °F 94% 29.83 in 2.2 mi East 8.1 mph - N/A   Mostly Cloudy
10:30 AM 55.4 °F - 53.6 °F 94% 29.83 in 3.1 mi SE 9.2 mph - N/A   Mostly Cloudy
11:00 AM 55.4 °F - 51.8 °F 88% 29.83 in 6.2 mi SE 12.7 mph - N/A   Mostly Cloudy
11:30 AM 57.2 °F - 51.8 °F 82% 29.83 in 6.2 mi SSE 13.8 mph - N/A   Mostly Cloudy
12:00 PM 56 °F - 52 °F 82% 29.82 in 19 mi SSE 11.2 mph - -   Partly Cloudy
12:00 PM 57.2 °F - 51.8 °F 82% 29.80 in 6.2 mi SSE 10.4 mph - N/A   Mostly Cloudy
12:30 PM 57.2 °F - 51.8 °F 82% 29.80 in 6.2 mi SSE 10.4 mph - N/A   Mostly Cloudy
1:00 PM 57.2 °F - 51.8 °F 82% 29.80 in 6.2 mi SSE 12.7 mph - N/A   Mostly Cloudy
1:30 PM 51.8 °F - 48.2 °F 88% 29.83 in 6.2 mi WSW 16.1 mph - N/A   Mostly Cloudy
2:00 PM 50.0 °F - 48.2 °F 94% 29.83 in 4.3 mi WSW 16.1 mph - N/A Rain Light Rain
2:30 PM 48.2 °F - 48.2 °F 100% 29.83 in 6.2 mi West 10.4 mph - N/A Rain Light Rain
3:00 PM 48.2 °F - 48.2 °F 100% 29.83 in 6.2 mi West 6.9 mph - N/A Rain Light Rain
3:30 PM 50.0 °F - 48.2 °F 94% 29.83 in 6.2 mi WSW 5.8 mph - N/A   Mostly Cloudy
4:00 PM 50.0 °F - 48.2 °F 94% 29.83 in 6.2 mi WSW 4.6 mph - N/A   Mostly Cloudy
4:30 PM 50.0 °F - 48.2 °F 94% 29.83 in 6.2 mi West 4.6 mph - N/A   Mostly Cloudy
5:00 PM 48.2 °F - 46.4 °F 93% 29.83 in 6.2 mi SW 3.5 mph - N/A   Mostly Cloudy
5:30 PM 48.2 °F - 46.4 °F 93% 29.83 in 6.2 mi South 1.2 mph - N/A   Mostly Cloudy
6:00 PM 49 °F - 47 °F 91% 29.86 in 12 mi South 6.7 mph - - Rain Light Rain
6:00 PM 48.2 °F - 46.4 °F 93% 29.83 in 6.2 mi South 5.8 mph - N/A   Mostly Cloudy
6:30 PM 48.2 °F - 46.4 °F 93% 29.83 in 6.2 mi SE 4.6 mph - N/A   Mostly Cloudy
7:00 PM 48.2 °F - 48.2 °F 100% 29.83 in 6.2 mi ESE 4.6 mph - N/A   Mostly Cloudy
7:30 PM 48.2 °F - 48.2 °F 100% 29.83 in 6.2 mi SSE 6.9 mph - N/A Rain Light Rain
8:00 PM 48.2 °F - 46.4 °F 93% 29.83 in 6.2 mi SSE 4.6 mph - N/A   Mostly Cloudy
8:30 PM 48.2 °F - 46.4 °F 93% 29.83 in 6.2 mi SSE 5.8 mph - N/A   Mostly Cloudy
9:00 PM 48.2 °F - 46.4 °F 93% 29.83 in - SSE 6.9 mph - N/A   Clear
9:30 PM 46.4 °F 44.3 °F 44.6 °F 93% 29.83 in - ESE 4.6 mph - N/A   Clear
10:00 PM 46.4 °F 44.3 °F 44.6 °F 93% 29.83 in - ESE 4.6 mph - N/A   Clear
10:30 PM 46.4 °F 43.5 °F 44.6 °F 93% 29.83 in - SSE 5.8 mph - N/A   Clear
11:00 PM 46.4 °F 41.9 °F 44.6 °F 93% 29.83 in - SSE 9.2 mph - N/A   Clear
11:30 PM 46.4 °F 43.5 °F 44.6 °F 93% 29.83 in - SE 5.8 mph - N/A   Clear